Location: *
(32.3300°N, 34.8500°E)
Time: 16:44:27
(UTC+00:00)

CZ-4B R/B - Pass Details

Date: 22 October 2019
Orbit: 497 x 647 km, 97.7° (Epoch: 12 November)

Event Time Altitude Azimuth Distance (km) Brightness Sun altitude
Rises 02:32:17 0° 4° (N) 2,767 7.4 -16.9°
Reaches altitude 10° 02:34:26 10° 358° (N) 1,891 6.5 -16.5°
Maximum altitude 02:38:22 46° 285° (WNW) 800 4.2 -15.6°
Drops below altitude 10° 02:42:28 10° 212° (SSW) 1,964 6.4 -14.8°
Sets 02:44:44 0° 206° (SSW) 2,886 7.3 -14.3°
